Content
SEND FEEDBACK

Daily
Averages
Monthly
Summary
United States of America

RAHWAY, NEW JERSEY


Home > North America > United States > New Jersey
Elevation: 20 feet     Latitude: 40 36N     Longitude: 074 16W

WEATHER
 
SELECT A DAY
Number of Records: 192,328;   Date Range: 1/1/95 - 10/19/14
 
SHARE

PRINT THIS DATA

[ ← Previous Day ]
WEATHER ALMANAC - JULY 11, 2013
[ Next Day → ]
[ °C ]   °F
Weather ElementAverageHighLow
Temperature81.3 °F87.1 °F (3:51 pm)77 °F (11:51 pm)
Dewpoint67.5 °F73 °F (1:51 am)61 °F (7:51 pm)
Humidity63.9 %79 % (2:51 am)44 % (6:51 pm)
Barometer29.85 in29.92 in (10:51 pm)29.80 in (4:51 am)
Wind Speed9.4 mph12.7 mph (8:51 am)
Wind Gust19.6 mph (11:51 am)
Weather ElementAverage
Visibility10 mi
Wind DirectionWSW (241.2 °)

Weather ElementTotal
Precipitation---
Cooling Degree Days17.1 (Base 65)
Growing Degree Days32.1 (Base 50)
Averaged from 25 records on July 11, 2013
WEATHER CONDITIONS BREAKOUT
WIND DIRECTION BREAKOUT
WEATHER BY HOUR - JULY 11, 2013
[ °C ]   °F
Local TimeTemperatureDewpointHumidityBarometerVisibilityWind DirectionWind SpeedGust SpeedPrecipitationEventsConditions
1:51 AM81.0 °F73.0 °F77 %29.81 in10.0 miSW (230°)8.1 mphMostly Cloudy
2:51 AM80.1 °F73.0 °F79 %29.82 in10.0 miSW (220°)10.4 mphMostly Cloudy
3:51 AM80.1 °F73.0 °F79 %29.81 in10.0 miSSW (210°)6.9 mphMostly Cloudy
4:51 AM80.1 °F72.0 °F76 %29.80 in10.0 miSSW (200°)6.9 mphMostly Cloudy
5:37 AM78.8 °F71.6 °F78 %29.81 in10.0 miSSW (210°)9.2 mphOvercast
5:51 AM79.0 °F71.1 °F77 %29.82 in10.0 miSSW (210°)5.8 mphOvercast
6:51 AM80.1 °F71.1 °F74 %29.83 in10.0 miWSW (240°)11.5 mphOvercast
7:11 AM78.8 °F71.6 °F78 %29.84 in10.0 miSW (220°)9.2 mphOvercast
7:51 AM79.0 °F70.0 °F74 %29.84 in10.0 miSW (230°)10.4 mph0.00 inOvercast
8:51 AM80.1 °F71.1 °F74 %29.86 in10.0 miWSW (250°)12.7 mphOvercast
9:51 AM79.0 °F71.1 °F77 %29.86 in10.0 miWest (260°)11.5 mph0.00 inRainLight Rain
10:51 AM79.0 °F66.0 °F64 %29.87 in10.0 miNNW (330°)11.5 mph0.00 inMostly Cloudy
11:51 AM81.0 °F64.9 °F58 %29.86 in10.0 miWNW (300°)10.4 mph19.6 mph0.00 inMostly Cloudy
12:51 PM81.0 °F66.0 °F60 %29.87 in10.0 miNW (310°)6.9 mphMostly Cloudy
1:51 PM82.9 °F66.0 °F56 %29.86 in10.0 miNorth (350°)9.2 mphMostly Cloudy
2:51 PM84.9 °F66.0 °F53 %29.86 in10.0 miWNW (300°)8.1 mphMostly Cloudy
3:51 PM87.1 °F64.9 °F48 %29.84 in10.0 miNW (310°)6.9 mphMostly Cloudy
4:51 PM87.1 °F66.0 °F49 %29.84 in10.0 miWNW (300°)6.9 mph17.3 mphMostly Cloudy
5:51 PM86.0 °F63.0 °F46 %29.85 in10.0 miWNW (300°)9.2 mph17.3 mphMostly Cloudy
6:51 PM86.0 °F62.1 °F44 %29.87 in10.0 miNNW (330°)12.7 mph18.4 mphMostly Cloudy
7:51 PM84.0 °F61.0 °F46 %29.88 in10.0 miNNW (330°)10.4 mphMostly Cloudy
8:51 PM82.0 °F61.0 °F49 %29.89 in10.0 miNNW (340°)11.5 mphMostly Cloudy
9:51 PM80.1 °F63.0 °F56 %29.91 in10.0 miNorth (10°)11.5 mphMostly Cloudy
10:51 PM78.1 °F64.9 °F64 %29.92 in10.0 miNNE (20°)9.2 mphMostly Cloudy
11:51 PM77.0 °F63.0 °F62 %29.92 in10.0 miNNE (20°)8.1 mphMostly Cloudy
Hourly data recorded from KEWR, located miles away from Rahway, New Jersey







STORIES FROM OUR PARTNERS